Location: Arrodets-la-Barthe
(43.0306°N, 0.2829°E)
Time: 16:36:38
(UTC+00:00)

STRAND 1 - Pass Details

Date: 10 April 2023
Orbit: 767 x 779 km, 98.4° (Epoch: 04 June)

Event Time Altitude Azimuth Distance (km) Brightness Sun altitude
Rises 04:35:29 0° 125° (SE) 3,240 ? -9.7°
Reaches altitude 10° 04:38:19 10° 109° (ESE) 2,315 ? -9.2°
Maximum altitude 04:41:59 20° 63° (ENE) 1,710 ? -8.6°
Drops below altitude 10° 04:45:39 10° 16° (NNE) 2,321 ? -8.0°
Sets 04:48:29 0° 1° (N) 3,251 ? -7.5°
